User: anonymous   Login
Location: Boiro
(42.6475°N, 8.8834°W)
Time: 19:16:42
(UTC+01:00)
Language:

Tiros 1 - Orbit

View from above orbital plane
View from above orbital plane
View from above satellite
View from above satellite

Ground track
Ground track

The orbit data is extracted from the following two-line orbital elements,

1    29U 60002B   21334.09781230 -.00000006  00000-0  30081-4 0  9995
2    29  48.3805 324.1315 0024255 341.4660  18.5366 14.74483277296960
Epoch (UTC): 30 November 2021 02:20:50
Eccentricity: 0.0024255
inclination: 48.3805°
perigee height: 630 km
apogee height: 664 km
right ascension of ascending node: 324.1315°
argument of perigee: 341.4660°
revolutions per day: 14.74483277
mean anomaly at epoch: 18.5366°
orbit number at epoch: 29696

The dashed part of the orbit path shows where the satellite is in the earth's shadow,  

DLR